TimeMST,TemperatureF,Dew PointF,Humidity,Sea Level PressureIn,VisibilityMPH,Wind Direction,Wind SpeedMPH,Gust SpeedMPH,PrecipitationIn,Events,Conditions,WindDirDegrees,DateUTC
12:15 AM,44.6,26.6,49,29.80,10.0,South,4.6,-,N/A,,Scattered Clouds,190,2012-12-02 07:15:00
12:35 AM,41.0,26.6,57,29.79,10.0,SE,6.9,-,N/A,,Mostly Cloudy,140,2012-12-02 07:35:00
12:55 AM,39.2,24.8,56,29.78,10.0,SSE,8.1,-,N/A,,Partly Cloudy,150,2012-12-02 07:55:00
1:15 AM,39.2,26.6,61,29.78,10.0,SSE,6.9,-,N/A,,Partly Cloudy,160,2012-12-02 08:15:00
1:35 AM,39.2,24.8,56,29.77,10.0,South,6.9,-,N/A,,Mostly Cloudy,170,2012-12-02 08:35:00
1:55 AM,39.2,26.6,61,29.76,10.0,SE,10.4,-,N/A,,Overcast,140,2012-12-02 08:55:00
2:15 AM,41.0,26.6,57,29.76,10.0,South,8.1,-,N/A,,Overcast,170,2012-12-02 09:15:00
2:35 AM,46.4,28.4,50,29.75,10.0,Calm,Calm,-,N/A,,Overcast,0,2012-12-02 09:35:00
2:55 AM,42.8,26.6,53,29.74,10.0,South,6.9,-,N/A,,Partly Cloudy,170,2012-12-02 09:55:00
3:15 AM,41.0,26.6,57,29.74,10.0,South,9.2,-,N/A,,Clear,170,2012-12-02 10:15:00
3:35 AM,41.0,26.6,57,29.72,10.0,SSE,5.8,-,N/A,,Clear,160,2012-12-02 10:35:00
3:55 AM,37.4,24.8,60,29.70,10.0,South,10.4,-,N/A,,Clear,170,2012-12-02 10:55:00
4:35 AM,41.0,26.6,57,29.68,10.0,South,9.2,-,N/A,,Clear,170,2012-12-02 11:35:00
4:55 AM,41.0,26.6,57,29.68,10.0,SSE,8.1,-,N/A,,Clear,150,2012-12-02 11:55:00
5:15 AM,46.4,26.6,46,29.68,10.0,South,13.8,-,N/A,,Clear,190,2012-12-02 12:15:00
5:35 AM,46.4,26.6,46,29.64,10.0,SSW,15.0,-,N/A,,Clear,200,2012-12-02 12:35:00
5:55 AM,50.0,26.6,40,29.63,10.0,South,18.4,-,N/A,,Clear,190,2012-12-02 12:55:00
6:35 AM,46.4,24.8,43,29.62,10.0,SSE,13.8,-,N/A,,Clear,160,2012-12-02 13:35:00
6:55 AM,46.4,24.8,43,29.61,10.0,South,12.7,-,N/A,,Clear,170,2012-12-02 13:55:00
7:15 AM,46.4,24.8,43,29.59,10.0,South,19.6,24.2,N/A,,Clear,170,2012-12-02 14:15:00
7:35 AM,48.2,24.8,40,29.56,10.0,South,20.7,29.9,N/A,,Clear,190,2012-12-02 14:35:00
7:55 AM,51.8,24.8,35,29.56,10.0,SSW,25.3,28.8,N/A,,Clear,210,2012-12-02 14:55:00
8:15 AM,51.8,24.8,35,29.57,10.0,WSW,9.2,-,N/A,,Clear,240,2012-12-02 15:15:00
8:35 AM,51.8,24.8,35,29.56,10.0,SW,8.1,-,N/A,,Clear,220,2012-12-02 15:35:00
8:55 AM,51.8,24.8,35,29.55,10.0,SW,17.3,24.2,N/A,,Clear,220,2012-12-02 15:55:00
9:15 AM,53.6,23.0,30,29.55,10.0,SW,13.8,24.2,N/A,,Clear,220,2012-12-02 16:15:00
9:35 AM,53.6,26.6,35,29.54,10.0,SW,11.5,19.6,N/A,,Clear,220,2012-12-02 16:35:00
9:55 AM,53.6,28.4,38,29.53,10.0,SSW,10.4,-,N/A,,Clear,210,2012-12-02 16:55:00
10:15 AM,53.6,28.4,38,29.53,10.0,SW,10.4,18.4,N/A,,Clear,220,2012-12-02 17:15:00
10:35 AM,53.6,30.2,41,29.52,10.0,West,8.1,-,N/A,,Clear,270,2012-12-02 17:35:00
10:55 AM,53.6,28.4,38,29.51,10.0,NE,3.5,-,N/A,,Clear,50,2012-12-02 17:55:00
11:35 AM,53.6,30.2,41,29.49,10.0,WNW,3.5,-,N/A,,Clear,290,2012-12-02 18:35:00
11:55 AM,53.6,30.2,41,29.48,10.0,WNW,5.8,-,N/A,,Clear,290,2012-12-02 18:55:00
12:15 PM,55.4,30.2,38,29.47,10.0,Calm,Calm,-,N/A,,Clear,0,2012-12-02 19:15:00
12:35 PM,55.4,30.2,38,29.45,10.0,WSW,8.1,-,N/A,,Clear,240,2012-12-02 19:35:00
12:55 PM,55.4,30.2,38,29.44,10.0,SSW,11.5,-,N/A,,Clear,200,2012-12-02 19:55:00
1:15 PM,57.2,32.0,38,29.43,10.0,SW,11.5,-,N/A,,Clear,230,2012-12-02 20:15:00
1:35 PM,57.2,30.2,36,29.43,10.0,SSW,9.2,-,N/A,,Clear,200,2012-12-02 20:35:00
2:35 PM,57.2,32.0,38,29.39,10.0,SW,23.0,32.2,N/A,,Clear,220,2012-12-02 21:35:00
3:15 PM,55.4,32.0,41,29.39,10.0,SW,24.2,40.3,N/A,,Clear,230,2012-12-02 22:15:00
3:35 PM,53.6,33.8,47,29.39,10.0,SW,28.8,43.7,N/A,,Clear,220,2012-12-02 22:35:00
3:55 PM,53.6,33.8,47,29.40,10.0,SSW,16.1,34.5,N/A,,Clear,210,2012-12-02 22:55:00
4:15 PM,53.6,33.8,47,29.40,10.0,SW,23.0,36.8,N/A,,Clear,220,2012-12-02 23:15:00
4:35 PM,51.8,33.8,50,29.38,10.0,SSW,12.7,-,N/A,,Clear,200,2012-12-02 23:35:00
4:55 PM,51.8,33.8,50,29.38,10.0,WSW,4.6,-,N/A,,Clear,250,2012-12-02 23:55:00
5:15 PM,53.6,32.0,44,29.38,10.0,SSW,18.4,24.2,N/A,,Clear,210,2012-12-03 00:15:00
5:35 PM,51.8,33.8,50,29.40,10.0,SSW,15.0,21.9,N/A,,Clear,210,2012-12-03 00:35:00
5:55 PM,51.8,33.8,50,29.39,10.0,SSW,18.4,29.9,N/A,,Clear,210,2012-12-03 00:55:00
6:15 PM,51.8,33.8,50,29.40,10.0,SW,16.1,-,N/A,,Clear,220,2012-12-03 01:15:00
6:55 PM,51.8,33.8,50,29.44,10.0,SSW,15.0,24.2,N/A,,Clear,200,2012-12-03 01:55:00
7:35 PM,50.0,35.6,58,29.50,10.0,WSW,11.5,24.2,N/A,,Scattered Clouds,240,2012-12-03 02:35:00
7:55 PM,46.4,33.8,62,29.52,10.0,SW,21.9,38.0,N/A,,Mostly Cloudy,230,2012-12-03 02:55:00
8:15 PM,48.2,32.0,54,29.52,10.0,SW,21.9,40.3,0.01,,Scattered Clouds,230,2012-12-03 03:15:00
8:35 PM,46.4,33.8,62,29.53,10.0,SSW,19.6,29.9,0.01,,Clear,200,2012-12-03 03:35:00
8:55 PM,44.6,33.8,66,29.53,10.0,SW,21.9,29.9,0.01,,Clear,220,2012-12-03 03:55:00
9:15 PM,44.6,33.8,66,29.53,10.0,SW,21.9,32.2,N/A,,Clear,230,2012-12-03 04:15:00
9:35 PM,46.4,30.2,53,29.54,10.0,WSW,13.8,29.9,N/A,,Clear,240,2012-12-03 04:35:00
9:55 PM,46.4,30.2,53,29.55,10.0,WSW,13.8,19.6,N/A,,Clear,240,2012-12-03 04:55:00
10:35 PM,39.2,28.4,65,29.64,10.0,North,18.4,25.3,N/A,,Partly Cloudy,350,2012-12-03 05:35:00
10:55 PM,37.4,30.2,75,29.65,10.0,NE,10.4,18.4,N/A,,Mostly Cloudy,40,2012-12-03 05:55:00
11:15 PM,39.2,30.2,70,29.65,10.0,SW,3.5,-,N/A,,Mostly Cloudy,220,2012-12-03 06:15:00
11:35 PM,35.6,30.2,81,29.67,10.0,NNE,6.9,-,N/A,,Clear,20,2012-12-03 06:35:00
11:55 PM,37.4,30.2,75,29.70,10.0,WSW,6.9,-,N/A,,Mostly Cloudy,240,2012-12-03 06:55:00